DUMMY SAT 3/ORION

导读 | 星芒AI

DUMMY SAT 3/ORION 是一颗用于测试和验证卫星技术的实验性卫星。它由某航天机构或公司研发,主要用于在轨演示新型通信、导航或遥感系统。该卫星的设计注重模块化和可扩展性,便于未来任务的快速部署。ORION 项目旨在降低航天任务成本,提高任务灵活性,并为后续商业或军事卫星奠定技术基础。其发射标志着在小型卫星平台和先进载荷集成方面的重要进展。

基本信息
目录编号:
59479
目录名称:
DUMMY SAT 3/ORION
国际标识:
2024-069A
轨道中心:
EARTH
卫星名称:
DUMMY SAT 3/ORION
卫星全名:
--
卫星状态:
在轨 (已飞行611 天)
发射日期:
2024-04-11 UTC
国别 :
俄罗斯(独联体) (CIS)
星等 :
--
轨道信息
数据来源 国际轨道数据 AOE轨道数据
星历时间 2025-12-13T03:59:17+0800
1天前
查看轨道信息
2025-12-14T04:00:00+0800
3小时前
查看轨道信息
半长轴 42638.563km 42638.534km
偏心率 0.0051569 0.0051929
轨道倾角 1.637° 1.641°
近地点辐角 129.571° 129.424°
升交点赤经 83.578° 83.562°
平近点角 230.226° 225.544°
近地点 36040.545km 36038.981km
远地点 36480.311km 36481.817km
周期 1460.372分钟 1460.371分钟
每日圈数 0.98605 0.986051
详细信息
使用方式:
暂无
2D轨道图
3D轨道图
轨道高度分析图
轨道倾角分析图
轨道综合分析图
查看轨道综合分析图